Location: 32930 Toén, Ourense, España
(42.3348°N, 7.8903°W)
Time: 22:10:14
(UTC+02:00)

ISS - Visible Passes

Search period start: 25 September 2020 00:00
Search period end: 05 October 2020 00:00
Orbit: 419 x 420 km, 51.6° (Epoch: 26 September)

Date Brightness Start Highest point End Pass type
(mag) Time Alt. Az. Time Alt. Az. Time Alt. Az.
25 Sep -1.6 20:55:08 10° WNW 20:57:52 22° NNW 21:00:35 10° NE visible
25 Sep -1.2 22:33:14 10° NW 22:35:06 17° N 22:35:06 17° N visible
26 Sep -1.4 21:45:40 10° NW 21:47:56 17° N 21:49:28 13° NNE visible
27 Sep -1.4 20:57:58 10° NW 21:00:18 17° N 21:02:38 10° NE visible
27 Sep -1.2 22:35:18 10° NW 22:36:47 18° NNW 22:36:47 18° NNW visible
28 Sep -1.7 21:47:55 10° NW 21:50:24 19° N 21:51:09 17° NNE visible
29 Sep -1.5 21:00:26 10° NW 21:02:45 17° N 21:05:05 10° NE visible
29 Sep -1.3 22:37:08 10° NW 22:38:28 20° NNW 22:38:28 20° NNW visible
30 Sep -2.3 21:49:47 10° NW 21:52:43 27° NNE 21:52:51 27° NNE visible
01 Oct -2.0 21:02:25 10° NW 21:05:06 22° NNE 21:07:15 13° ENE visible
01 Oct -1.2 22:38:56 10° NW 22:40:13 21° NW 22:40:13 21° NW visible
02 Oct -3.4 21:51:31 10° NW 21:54:40 51° NNE 21:54:40 51° NNE visible
03 Oct -2.9 21:04:09 10° NW 21:07:18 36° NNE 21:09:10 20° E visible
03 Oct -0.9 22:41:00 10° WNW 22:42:08 18° W 22:42:08 18° W visible
04 Oct -3.4 21:53:23 10° WNW 21:56:42 58° SW 21:56:43 58° SW visible
